Regional Weather Roundup
Issued by NWS

Home | Current Version | Previous Version | Text Only | Print | Product List | Glossary On
Versions: 1 2 3 4 5 6 7 8 9 10 11 12 13 14 15 16 17 18 19 20 21 22 23 24 25 26 27 28 29 30 31 32 33 34 35 36 37 38 39 40 41 42 43 44 45 46 47 48 49 50
000
ASCA42 TJSJ 300410
RWRPR
PUERTO RICO/U.S. VIRGIN ISLANDS HOURLY WEATHER ROUNDUP
NATIONAL WEATHER SERVICE SAN JUAN PR
1200 AM AST SUN AUG 30 2015

PRZ001-004-300500-
PUERTO RICO

CITY           SKY/WX    TMP DP  RH WIND       PRES   REMARKS
SAN JUAN LMM   PTCLDY    82  75  78 E9        30.01F
PONCE          PTCLDY    81  73  78 CALM      29.95
$$

PRZ006-007-300500-
U.S. VIRGIN ISLANDS

CITY           SKY/WX    TMP DP  RH WIND       PRES   REMARKS
CHARLOTTE AMA  CLEAR     84  75  74 E8        30.00F HX  92
CHRISTIANSTED  CLOUDY    79  75  89 E12       30.00F
$$

HOURLY WEATHER ROUNDUP FOR THE NEWS MEDIA

CITY           SKY/WX    TMP DP  RH WIND       PRES   REMARKS
ORLANDO        CLOUDY    74  74 100 NE7       30.07S
NEW YORK       MOCLDY    74  62  66 SW9       30.12F
NEWARK         MOCLDY    74  61  63 SW9       30.11S
CHICAGO        CLOUDY    67  65  93 N6        30.03S FOG
HARTFORD       CLEAR     66  63  90 SW3       30.11F
BOSTON         MOCLDY    70  58  65 SW12      30.09S
DALLAS         CLOUDY    85  63  47 CALM      29.97S
PHILADELPHIA   MOCLDY    74  62  66 S12       30.13S
LOS ANGELES    PTCLDY    76  66  71 W17       29.84R
WASHINGTON DC  PTCLDY    73  64  73 S8        30.12S


USA.gov is the U.S. government's official web portal to all federal, state and local government web resources and services.